[[{"header":{"parameterUnit":"m.s-1","parameterCategory":1,"la1":30.2991,"la2":30.254,"lo1":-89.0895,"lo2":-89.0444,"dy":0.0017,"dx":0.0017,"nx":28,"ny":28,"refTime":"2023-08-23T21:00:00:Z","depth":0,"parameterNumber":2,"parameterNumberName":"U-component_of_WINDS"},"data":[0,0,0,0,0,0,0,0,0,0,0,0,0,0,0,0,0,0,0,0,0,0,0,0,0,0,0,0,0,0,0,0,0,0,0,0,0,0,0,0,0,0,0,0,0,0,0,0,0,0,0,0,0,0,0,0,0,0,0.5214,0.5216,0,0.5395,0.5397,0.5399,0.5481,0.5481,0.5481,0.5481,0.5669,0.5674,0.5679,0,0,0,0,0,0,0,0,0,0,0,0,0,0.494,0.4944,0.5213,0.5216,0.5218,0.5394,0.5397,0.5399,0.5482,0.5481,0.5481,0.5481,0.5668,0.5674,0.568,0,0,0,0,0,0,0,0,0,0,0,0,0,0.5083,0.4946,0.5213,0.528,0.5288,0.5394,0.5397,0.54,0.5482,0.5481,0.5481,0.5481,0.5666,0.5673,0.5681,0.5734,0,0,0.5705,0.5708,0,0,0,0,0,0,0,0,0.5075,0.5093,0.5268,0.5276,0.5285,0.5415,0.5369,0.5512,0.5482,0.5408,0.5481,0.5481,0.5585,0.56,0.5634,0.5743,0.5751,0.5705,0.571,0.5713,0.5716,0,0,0,0,0,0,0,0.5065,0.5086,0.5285,0.527,0.5281,0.5302,0.5322,0.5397,0.5496,0.5415,0.5421,0.5441,0.559,0.5626,0.5639,0.5754,0.5705,0.5712,0.5717,0.572,0.5914,0.5914,0,0,0,0,0,0,0.5044,0.5077,0.5279,0.5291,0.5177,0.5307,0.5329,0.5374,0.5495,0.5514,0.5441,0.5444,0.5613,0.563,0.5646,0.5716,0.5713,0.5721,0.5725,0.5913,0.5914,0.5914,0,0,0,0,0,0,0.5038,0.5061,0.5272,0.5186,0.5214,0.5312,0.5361,0.5377,0.5414,0.5516,0.5534,0.546,0.5614,0.5635,0.5711,0.5724,0.5724,0.5731,0.5913,0.5914,0.5914,0.5856,0,0,0,0,0,0,0.503,0.5059,0.508,0.5186,0.5218,0.5334,0.5362,0.5381,0.5427,0.5433,0.5539,0.5556,0.5615,0.5699,0.5719,0.5734,0.5737,0.5912,0.5913,0.5914,0.5857,0.5854,0.5852,0,0,0,0,0,0.502,0.5057,0.5081,0.5104,0.5247,0.5334,0.5353,0.542,0.5428,0.545,0.5514,0.5552,0.5718,0.5706,0.5729,0.5747,0.5912,0.5913,0.5914,0.5858,0.5855,0.5852,0,0,0,0,0,0,0.4952,0.5072,0.51,0.5173,0.5242,0.5348,0.5378,0.5415,0.5484,0.5487,0.5568,0.5591,0.5659,0.5711,0.5695,0.5804,0.5818,0.5824,0.5768,0.5766,0.5763,0.575,0.5744,0,0,0,0,0,0.4945,0.5005,0.5108,0.5162,0.5195,0.528,0.5321,0.5366,0.5442,0.5472,0.5543,0.5616,0.5684,0.5728,0.5797,0.5864,0.5888,0.5888,0.5885,0.5883,0.5887,0.5925,0.5926,0.5918,0.5918,0.5918,0,0,0.4933,0.5006,0.5039,0.515,0.521,0.527,0.5305,0.5368,0.5414,0.5482,0.5558,0.5611,0.5698,0.5769,0.5805,0.5815,0.5894,0.5884,0.5881,0.5887,0.5926,0.5927,0.5928,0.5919,0.5919,0.5919,0,0,0.4941,0.5002,0.5054,0.5112,0.52,0.5256,0.5268,0.5368,0.5406,0.5482,0.5534,0.559,0.5707,0.5766,0.5811,0.5838,0.5875,0.5858,0.5846,0.5882,0.5883,0.5884,0.5893,0.5895,0.5862,0.5862,0.5861,0,0.4914,0.5007,0.5076,0.5135,0.5182,0.5245,0.5297,0.535,0.5457,0.5488,0.5497,0.5644,0.5707,0.5792,0.5798,0.5833,0.5849,0.5847,0.5877,0.5878,0.588,0.589,0.5893,0.5859,0.5859,0.5859,0.586,0,0.497,0.5033,0.5064,0.5164,0.5214,0.527,0.5346,0.5389,0.5429,0.5483,0.556,0.5637,0.5721,0.5745,0.5785,0.5835,0.5839,0.5861,0.5877,0.5877,0.5888,0.5892,0.5855,0.5856,0.5857,0.5857,0,0,0.4942,0.5077,0.5087,0.5133,0.5234,0.5284,0.5342,0.5423,0.5458,0.5529,0.558,0.5675,0.5696,0.5747,0.5794,0.5826,0.5841,0.5845,0.5848,0.5841,0.59,0.5883,0.5886,0.5865,0.5866,0.5867,0.5893,0,0.4964,0.507,0.5132,0.5213,0.5272,0.533,0.5381,0.5448,0.55,0.5558,0.5615,0.5681,0.5704,0.5735,0.5769,0.5832,0.5854,0.5831,0.5914,0.5916,0.589,0.5892,0.5874,0.5895,0.5897,0.5898,0.5899,0,0.5004,0.5072,0.5158,0.525,0.5278,0.5322,0.54,0.5454,0.5531,0.5567,0.5622,0.5669,0.5732,0.5741,0.5829,0.5812,0.5849,0.5885,0.5887,0.5898,0.5908,0.5903,0.5903,0.5906,0.5906,0.5905,0.5905,0,0.4975,0.5088,0.5154,0.5191,0.53,0.533,0.5377,0.5454,0.5498,0.5566,0.5596,0.5671,0.5712,0.5769,0.5835,0.5836,0.5916,0.5931,0.5947,0.5945,0.5962,0.5961,0.5969,0.5985,0.5985,0.5985,0.5985,0,0.4993,0.5043,0.5142,0.5182,0.5239,0.531,0.5365,0.5417,0.5484,0.5535,0.5591,0.5638,0.5722,0.5779,0.583,0.5895,0.5913,0.5944,0.5957,0.5939,0.5935,0.5965,0.5966,0.5986,0.5986,0.5986,0.5985,0,0.4971,0.5039,0.5114,0.5211,0.5236,0.5274,0.5357,0.5399,0.5452,0.5516,0.5535,0.562,0.569,0.576,0.5856,0.589,0.5953,0.5971,0.5927,0.5934,0.5946,0.5944,0.5974,0.5982,0.5992,0.5992,0.5992,0,0.4978,0.5018,0.5118,0.5156,0.5202,0.5262,0.5307,0.5377,0.5421,0.551,0.5541,0.5614,0.5677,0.5786,0.5856,0.5929,0.5949,0.5955,0.5961,0.5941,0.5949,0.5946,0.595,0.5953,0.5952,0.5952,0.5951,0,0.4984,0.5015,0.5077,0.515,0.5201,0.5263,0.5326,0.5354,0.5436,0.5483,0.5554,0.5603,0.5698,0.5771,0.5851,0.59,0.5939,0.5948,0.5956,0.5939,0.5911,0.5926,0.592,0.5948,0.5948,0.5949,0.5949,0.5949,0.4977,0.5015,0.509,0.5157,0.5212,0.5269,0.5312,0.537,0.543,0.5513,0.555,0.5622,0.5696,0.5808,0.5855,0.5913,0.5923,0.5934,0.5937,0.5939,0.5934,0.5901,0.5927,0.5928,0.5928,0.5928,0.5928,0,0.4986,0.5037,0.5097,0.5183,0.5235,0.5265,0.5336,0.5378,0.544,0.5506,0.5565,0.5647,0.5717,0.5791,0.5865,0.5896,0.5916,0.5913,0.5912,0.5923,0.5921,0.5907,0.5896,0.5896,0.5896,0.5896,0.5896,0.5896,0.4996,0.5061,0.51,0.5192,0.5243,0.5312,0.535,0.5403,0.5455,0.5543,0.5601,0.5648,0.5717,0.5796,0.5861,0.5882,0.5906,0.5898,0.5924,0.5921,0.5923,0.5925,0.5913,0.5903,0.5903,0.5921,0.5921,0.5921]},{"header":{"parameterUnit":"m.s-1","parameterCategory":1,"la1":30.2991,"la2":30.254,"lo1":-89.0895,"lo2":-89.0444,"dy":0.0017,"dx":0.0017,"nx":28,"ny":28,"refTime":"2023-08-23T21:00:00:Z","depth":0,"parameterNumber":3,"parameterNumberName":"V-component_of_WINDS"},"data":[0,0,0,0,0,0,0,0,0,0,0,0,0,0,0,0,0,0,0,0,0,0,0,0,0,0,0,0,0,0,0,0,0,0,0,0,0,0,0,0,0,0,0,0,0,0,0,0,0,0,0,0,0,0,0,0,0,0,3.5862,3.5861,0,3.5794,3.5793,3.5792,3.581,3.5812,3.5813,3.5815,3.5735,3.5731,3.5728,0,0,0,0,0,0,0,0,0,0,0,0,0,3.6,3.5997,3.5862,3.5861,3.586,3.5794,3.5793,3.5792,3.581,3.5812,3.5814,3.5815,3.5736,3.5732,3.5728,0,0,0,0,0,0,0,0,0,0,0,0,0,3.5936,3.5997,3.5862,3.5862,3.5861,3.5794,3.5793,3.5792,3.581,3.5812,3.5814,3.5816,3.5737,3.5732,3.5727,3.5653,0,0,3.5711,3.5709,0,0,0,0,0,0,0,0,3.594,3.5931,3.5863,3.5862,3.5861,3.5813,3.5812,3.5745,3.5809,3.5829,3.5815,3.5817,3.5758,3.5752,3.5734,3.565,3.5646,3.5711,3.5708,3.5706,3.5704,0,0,0,0,0,0,0,3.5944,3.5934,3.5835,3.5862,3.586,3.5862,3.5855,3.58,3.5782,3.5827,3.5829,3.5821,3.5758,3.5739,3.5732,3.5645,3.5711,3.5707,3.5703,3.5701,3.5495,3.5493,0,0,0,0,0,0,3.5951,3.5938,3.5837,3.5833,3.5907,3.5858,3.5851,3.5826,3.5783,3.5779,3.5819,3.5822,3.5747,3.5738,3.5729,3.5639,3.5706,3.5701,3.5698,3.5498,3.5495,3.5492,0,0,0,0,0,0,3.5954,3.5942,3.584,3.5886,3.5873,3.5853,3.5826,3.5824,3.5804,3.5777,3.5773,3.5803,3.5748,3.5737,3.5673,3.5637,3.5698,3.5694,3.5501,3.5497,3.5494,3.5459,0,0,0,0,0,0,3.5958,3.5943,3.5916,3.5885,3.587,3.5786,3.5824,3.5821,3.5797,3.58,3.5761,3.5756,3.5749,3.568,3.5667,3.5631,3.569,3.5504,3.5499,3.5495,3.5463,3.5454,3.5447,0,0,0,0,0,3.5963,3.5907,3.5915,3.5903,3.5838,3.5784,3.5776,3.5771,3.5794,3.5765,3.5748,3.5757,3.5643,3.5673,3.5659,3.562,3.5506,3.55,3.5495,3.5466,3.5456,3.5447,0,0,0,0,0,0,3.5931,3.5903,3.5911,3.5845,3.5817,3.5788,3.5752,3.576,3.5723,3.5727,3.572,3.5711,3.5645,3.5626,3.5661,3.5546,3.5577,3.5569,3.5561,3.555,3.5543,3.5547,3.5686,0,0,0,0,0,3.5917,3.5879,3.5856,3.5799,3.5785,3.5771,3.5748,3.5747,3.5717,3.5704,3.5682,3.5649,3.5606,3.5578,3.5536,3.5461,3.5452,3.5428,3.542,3.5413,3.5405,3.5363,3.5351,3.5475,3.5475,3.5475,0,0,3.5886,3.5866,3.5842,3.5792,3.5771,3.5729,3.5761,3.5715,3.5683,3.5696,3.5635,3.5617,3.5581,3.5511,3.5479,3.5493,3.5369,3.5407,3.5402,3.5397,3.5356,3.5344,3.5334,3.5471,3.5472,3.5472,0,0,3.5808,3.5791,3.5742,3.572,3.5689,3.568,3.5668,3.5638,3.5628,3.5567,3.5576,3.5536,3.5463,3.5436,3.5413,3.5327,3.5333,3.5313,3.5271,3.523,3.522,3.5211,3.5178,3.5167,3.5306,3.5306,3.5306,0,3.5773,3.5714,3.5714,3.5669,3.5645,3.5659,3.5608,3.5586,3.5541,3.5523,3.5541,3.545,3.5426,3.5349,3.5329,3.531,3.5294,3.5316,3.5222,3.5213,3.5205,3.5174,3.5162,3.5304,3.5304,3.5304,3.5304,0,3.5671,3.5629,3.5593,3.5553,3.5526,3.5477,3.5468,3.544,3.5442,3.543,3.5367,3.534,3.5293,3.5276,3.5275,3.5198,3.5209,3.5224,3.5255,3.5191,3.5161,3.5149,3.53,3.5301,3.5302,3.5302,0,0,3.5569,3.5532,3.5518,3.55,3.5467,3.5434,3.5385,3.5343,3.5318,3.5287,3.5244,3.5182,3.5197,3.5171,3.5168,3.5132,3.5064,3.5152,3.5151,3.5135,3.4975,3.4962,3.4948,3.5069,3.5067,3.5065,3.4978,0,3.5487,3.5405,3.5405,3.5327,3.5288,3.5301,3.5258,3.5232,3.522,3.5182,3.5168,3.5124,3.5148,3.5132,3.5098,3.508,3.5031,3.5086,3.5026,3.5024,3.5033,3.4933,3.4919,3.4837,3.4966,3.4964,3.4963,0,3.538,3.5349,3.5269,3.5242,3.5225,3.5187,3.5148,3.5114,3.5083,3.5077,3.5049,3.5052,3.4999,3.5034,3.496,3.4997,3.4973,3.496,3.4957,3.4949,3.4988,3.492,3.4812,3.4799,3.4945,3.4946,3.4948,0,3.5311,3.5249,3.5194,3.5178,3.5146,3.5118,3.5103,3.5075,3.505,3.5015,3.4998,3.4957,3.4933,3.4899,3.489,3.4917,3.4815,3.485,3.4806,3.4806,3.4782,3.4783,3.4666,3.477,3.477,3.477,3.4771,0,3.5219,3.5168,3.5163,3.5128,3.5071,3.5071,3.5014,3.5,3.4976,3.4936,3.4945,3.4907,3.4898,3.4858,3.485,3.4789,3.4778,3.477,3.4768,3.4768,3.4769,3.475,3.4754,3.4767,3.4768,3.4769,3.4769,0,3.5131,3.5126,3.5065,3.5041,3.5034,3.4993,3.4971,3.4936,3.4927,3.4876,3.4864,3.4848,3.4801,3.479,3.4732,3.4727,3.4654,3.4659,3.4666,3.4665,3.4621,3.4625,3.4486,3.4466,3.4586,3.4584,3.4584,0,3.5072,3.5034,3.5006,3.4983,3.4967,3.4928,3.4903,3.4901,3.4874,3.4837,3.4806,3.4762,3.4725,3.4649,3.463,3.4586,3.4588,3.4542,3.4581,3.4582,3.4585,3.4586,3.4582,3.4534,3.4533,3.4532,3.4531,0,3.4965,3.4965,3.4931,3.4895,3.4866,3.4837,3.481,3.4789,3.4782,3.4751,3.4706,3.4678,3.4622,3.4575,3.4532,3.4513,3.4519,3.452,3.4507,3.4505,3.451,3.4505,3.4643,3.4522,3.4523,3.4523,3.4524,3.4524,3.4888,3.4855,3.4832,3.4793,3.4773,3.4747,3.4713,3.4701,3.4664,3.462,3.4621,3.457,3.4539,3.4482,3.4461,3.4419,3.4433,3.4414,3.4409,3.4404,3.44,3.4519,3.4411,3.4412,3.4412,3.4412,3.4412,0,3.4781,3.4767,3.4732,3.4695,3.4664,3.4678,3.4648,3.462,3.4576,3.4549,3.4515,3.4461,3.4417,3.4395,3.4351,3.4322,3.4323,3.431,3.431,3.4306,3.4391,3.4406,3.4309,3.4309,3.4309,3.4309,3.4309,3.4309,3.4721,3.4666,3.4663,3.4597,3.4583,3.4536,3.4517,3.4493,3.4471,3.4413,3.4377,3.4365,3.4339,3.4294,3.4253,3.4248,3.423,3.4214,3.421,3.4289,3.43,3.431,3.4323,3.4211,3.421,3.4127,3.4126,3.4126]}]]